Voltar ao catálogo

STARLINK-31931

AtivoComunicaçõesVLEO
NORAD 59864·PAYLOAD·🇺🇸 United States

Lançado May 24, 2024 de Cape Canaveral Space Force Station

Loading…

Próximas Passagens (próximas 24 horas)

TLE

AtualizadoSource: CelesTrak SupGP

Época: Sep 14, 2026, 20:55 UTC

1 59864C 24098G   26257.87201389 -.00007087  00000+0 -25671-3 0  2579
2 59864  43.0004 289.9220 0001315 269.8255 150.6021 15.27579081    15

Acompanhe STARLINK-31931 em tempo real com AllMySat

Download on the App Store